Location: Bartlow
(52.0833°N, 0.3167°E)
Time: 05:02:18
(UTC+00:00)

Meteor 2-17 Rocket - Pass Details

Date: 29 April 2024
Orbit: 934 x 957 km, 82.5° (Epoch: 25 May)

Event Time Altitude Azimuth Distance (km) Brightness Sun altitude
Exits shadow 23:23:58 17° 108° (ESE) 2,219 6.1 -22.7°
Maximum altitude 23:26:13 20° 80° (E) 2,019 6.2 -22.7°
Drops below altitude 10° 23:30:29 10° 35° (NE) 2,666 7.4 -22.8°
Sets 23:33:36 0° 20° (NNE) 3,612 8.5 -22.9°
